Weather History for PAFA - November, 2013

Change the Weather History Date:

Monday, November 25, 2013

  Actual Average Record
Temperature  
Mean Temperature 3 °F -1 °F  
Max Temperature 13 °F 7 °F 54 °F (1936)
Min Temperature -7 °F -10 °F -43 °F (1994)
Degree Days  
Heating Degree Days 62 66  
Month to date heating degree days 1402 1538  
Since 1 July heating degree days 3177 3797  
Cooling Degree Days 0 0  
Month to date cooling degree days 0 0  
Year to date cooling degree days 226 61  
Moisture  
Dew Point 0 °F    
Average Humidity 79    
Maximum Humidity 87    
Minimum Humidity 70    
Precipitation  
Precipitation 0.02 in 0.02 in 0.25 in (1970)
Month to date precipitation 1.49 0.57  
Year to date precipitation 9.62 10.07  
Snow  
Snow 1.50 in 0.40 in 3.60 in (1970)
Month to date snowfall 14.1 11.1  
Since 1 July snowfall 15.5 23.7  
Since 1 September snowfall 15.5 23.7  
Snow Depth 9.00 in    
Sea Level Pressure  
Sea Level Pressure 30.04 in    
Wind  
Wind Speed 2 mph (NE)    
Max Wind Speed 8 mph    
Max Gust Speed -    
Visibility 8 miles    
Events Snow    
T = Trace of Precipitation, MM = Missing Value Source: NWS Daily Summary

Daily Weather History Graph

Daily Weather History Graph

Search for Another Location

Airport or City:

Trip Planner

Search our weather history database for the weather conditions in past years. The results will help you decide how hot, cold, wet, or windy it might be!

Date:

Astronomy

Nov. 25, 2013 Rise Set
Actual Time 10:01 AM AKST 3:15 PM AKST
Civil Twilight 8:51 AM AKST 4:25 PM AKST
Nautical Twilight 7:45 AM AKST 5:31 PM AKST
Astronomical Twilight 6:46 AM AKST 6:30 PM AKST
Moon No Moon Rise 1:38 PM AKST (11/25)
Length of Visible Light 7h 33m
Length of Day
5h 13m
Waning Gibbous, 49% of the Moon is Illuminated
Nov 25
Waning Gibbous
Dec 2
New
Dec 9
First Quarter
Dec 17
Full
Dec 25
Last Quarter

Hourly Weather History & Observations

Time (AKST) Temp. Windchill Dew Point Humidity Pressure Visibility Wind Dir Wind Speed Gust Speed Precip Events Conditions
12:53 AM 12.9 °F - 8.1 °F 81% 30.08 in 3.0 mi Calm Calm - N/A Snow Light Snow
1:00 AM 12.9 °F - 8.1 °F 81% 30.04 in 2.0 mi Calm Calm - N/A Snow Light Snow
1:53 AM 12.9 °F - 8.1 °F 81% 30.08 in 2.0 mi Calm Calm - N/A Snow Light Snow
3:53 AM 12.9 °F - 8.1 °F 81% 30.10 in 3.0 mi Calm Calm - N/A Snow Light Snow
4:53 AM 12.9 °F - 8.1 °F 81% 30.09 in 3.0 mi Calm Calm - N/A Snow Light Snow
5:53 AM 12.9 °F - 9.0 °F 84% 30.09 in 7.0 mi Calm Calm - N/A Snow Light Snow
6:53 AM 6.1 °F - 3.0 °F 87% 30.10 in 10.0 mi Calm Calm - N/A   Mostly Cloudy
7:53 AM 1.9 °F - -2.0 °F 83% 30.10 in 10.0 mi Calm Calm - N/A   Scattered Clouds
8:53 AM -5.1 °F -17.6 °F -8.0 °F 87% 30.10 in 10.0 mi NE 5.8 mph - N/A   Partly Cloudy
9:53 AM -4.0 °F -12.4 °F -9.9 °F 76% 30.09 in 10.0 mi NE 3.5 mph - N/A   Scattered Clouds
10:53 AM -2.9 °F - -8.0 °F 79% 30.08 in 10.0 mi Calm Calm - N/A   Scattered Clouds
11:53 AM -4.0 °F - -9.0 °F 79% 30.07 in 10.0 mi Calm Calm - N/A   Scattered Clouds
12:53 PM -0.9 °F -8.9 °F -6.0 °F 79% 30.06 in 10.0 mi East 3.5 mph - N/A   Mostly Cloudy
1:53 PM 1.0 °F - -4.0 °F 79% 30.04 in 10.0 mi Calm Calm - N/A   Mostly Cloudy
2:53 PM 1.0 °F -10.3 °F -4.0 °F 79% 30.01 in 10.0 mi NE 5.8 mph - N/A   Mostly Cloudy
3:53 PM 3.0 °F -8.0 °F -2.0 °F 80% 30.00 in 10.0 mi NE 5.8 mph - N/A   Mostly Cloudy
4:53 PM 5.0 °F -2.1 °F -0.0 °F 80% 29.99 in 10.0 mi East 3.5 mph - N/A   Mostly Cloudy
5:53 PM 8.1 °F -0.5 °F 3.0 °F 80% 29.97 in 10.0 mi NNE 4.6 mph - N/A   Mostly Cloudy
6:53 PM 5.0 °F -6.9 °F -0.9 °F 76% 29.98 in 10.0 mi North 6.9 mph - N/A   Mostly Cloudy
7:53 PM 7.0 °F -5.7 °F 1.0 °F 77% 29.97 in 10.0 mi NE 8.1 mph - N/A   Mostly Cloudy
8:53 PM 3.9 °F -3.4 °F -0.9 °F 80% 29.97 in 10.0 mi NE 3.5 mph - N/A   Mostly Cloudy
9:53 PM 10.0 °F 1.8 °F 3.9 °F 76% 29.97 in 10.0 mi NNE 4.6 mph - N/A   Mostly Cloudy
10:53 PM 8.1 °F -0.5 °F 1.9 °F 76% 29.97 in 10.0 mi NNE 4.6 mph - N/A   Mostly Cloudy
11:53 PM 7.0 °F -1.7 °F 1.0 °F 77% 29.99 in 10.0 mi NE 4.6 mph - N/A   Mostly Cloudy